[[{"header":{"parameterUnit":"m.s-1","parameterCategory":1,"la1":30.2991,"la2":30.254,"lo1":-89.0895,"lo2":-89.0444,"dy":0.0017,"dx":0.0017,"nx":28,"ny":28,"refTime":"2025-08-14T03:00:00:Z","depth":0,"parameterNumber":2,"parameterNumberName":"U-component_of_WINDS"},"data":[0,0,0,0,0,0,0,0,0,0,0,0,0,0,0,0,0,0,0,0,0,0,0,0,0,0,0,0,0,0,0,0,0,0,0,0,0,0,0,0,0,0,0,0,0,0,0,0,0,0,0,0,0,0,0,0,0,0,0.4268,0.4269,0,0.4367,0.4368,0.4369,0.4389,0.4388,0.4387,0.4387,0.4491,0.4494,0.4498,0,0,0,0,0,0,0,0,0,0,0,0,0,0.4099,0.4102,0.4268,0.4269,0.4271,0.4366,0.4368,0.4369,0.4389,0.4388,0.4387,0.4386,0.449,0.4494,0.4498,0,0,0,0,0,0,0,0,0,0,0,0,0,0.4183,0.4103,0.4268,0.4292,0.4295,0.4366,0.4368,0.437,0.4389,0.4388,0.4387,0.4386,0.4489,0.4494,0.4499,0.4554,0,0,0.4515,0.4517,0,0,0,0,0,0,0,0,0.4178,0.4189,0.4287,0.429,0.4294,0.4364,0.4347,0.4432,0.439,0.4354,0.4387,0.4385,0.445,0.4458,0.4479,0.4559,0.4563,0.4515,0.4518,0.4521,0.4522,0,0,0,0,0,0,0,0.4172,0.4185,0.4307,0.4289,0.4293,0.4299,0.4309,0.4363,0.4407,0.4357,0.4358,0.437,0.4452,0.4474,0.4482,0.4565,0.4515,0.452,0.4523,0.4525,0.4693,0.4694,0,0,0,0,0,0,0.4162,0.418,0.4304,0.431,0.4232,0.4302,0.4314,0.4343,0.4407,0.4415,0.437,0.437,0.4466,0.4476,0.4486,0.4553,0.4521,0.4526,0.4529,0.4691,0.4693,0.4695,0,0,0,0,0,0,0.4158,0.4173,0.43,0.4245,0.4262,0.4307,0.4339,0.4346,0.4368,0.4417,0.4425,0.4385,0.4465,0.4478,0.4536,0.4557,0.4528,0.4533,0.469,0.4692,0.4694,0.4689,0,0,0,0,0,0,0.4153,0.4171,0.4192,0.4246,0.4265,0.4348,0.434,0.4348,0.4377,0.4377,0.4433,0.4441,0.4466,0.4528,0.4541,0.4564,0.4537,0.4688,0.4691,0.4693,0.4688,0.4691,0.4694,0,0,0,0,0,0.4147,0.4188,0.4193,0.4208,0.4292,0.4349,0.436,0.4387,0.4378,0.44,0.4431,0.4439,0.4553,0.4534,0.4549,0.4573,0.4687,0.469,0.4693,0.4687,0.469,0.4694,0,0,0,0,0,0,0.4137,0.4196,0.4202,0.4261,0.43,0.4353,0.4381,0.439,0.4433,0.4432,0.4463,0.4476,0.4532,0.4559,0.4537,0.4629,0.462,0.4626,0.461,0.4614,0.4616,0.4609,0.4541,0,0,0,0,0,0.4142,0.4183,0.4232,0.428,0.4298,0.4336,0.4362,0.4379,0.4421,0.4438,0.4473,0.4514,0.4559,0.4588,0.4632,0.4692,0.4704,0.4716,0.4719,0.4721,0.4726,0.4758,0.4764,0.4704,0.4704,0.4704,0,0,0.4152,0.4189,0.4213,0.4278,0.431,0.4352,0.435,0.4395,0.4426,0.4445,0.4501,0.4528,0.4576,0.4635,0.4662,0.4659,0.4745,0.4725,0.4726,0.473,0.4762,0.4767,0.4772,0.4706,0.4706,0.4706,0,0,0.4192,0.4224,0.4266,0.4298,0.4346,0.4371,0.4381,0.4432,0.445,0.4506,0.4521,0.4559,0.4636,0.4669,0.4696,0.4747,0.4756,0.476,0.4775,0.4806,0.4811,0.4815,0.4833,0.4838,0.4765,0.4765,0.4765,0,0.4198,0.4261,0.4287,0.4331,0.4359,0.4376,0.442,0.445,0.451,0.4529,0.4524,0.4619,0.4653,0.4719,0.4731,0.4753,0.4765,0.4754,0.4808,0.4813,0.4817,0.4834,0.484,0.4765,0.4765,0.4765,0.4765,0,0.4267,0.4311,0.4339,0.4395,0.4427,0.447,0.4503,0.4532,0.4545,0.4571,0.4627,0.4668,0.472,0.4737,0.4752,0.4805,0.4801,0.4802,0.4792,0.4823,0.4839,0.4845,0.4765,0.4765,0.4765,0.4765,0,0,0.4304,0.4372,0.4382,0.4407,0.4461,0.4495,0.4539,0.4589,0.4612,0.4653,0.4691,0.4755,0.4755,0.4785,0.4804,0.4831,0.4867,0.4829,0.483,0.4834,0.4927,0.4926,0.4933,0.4874,0.4875,0.4876,0.4923,0,0.4349,0.4427,0.4451,0.4516,0.4557,0.4573,0.4611,0.4648,0.4673,0.4711,0.4738,0.4782,0.478,0.4799,0.4827,0.4857,0.4886,0.4854,0.4909,0.4911,0.4895,0.4941,0.494,0.4982,0.4929,0.4931,0.4931,0,0.4412,0.4452,0.4521,0.4568,0.4586,0.462,0.4667,0.4703,0.4745,0.4761,0.4794,0.481,0.4857,0.4845,0.4909,0.4886,0.491,0.4929,0.4931,0.4937,0.4922,0.4947,0.4997,0.5002,0.4942,0.4941,0.494,0,0.443,0.4502,0.4552,0.4573,0.463,0.4653,0.4678,0.4719,0.4747,0.4788,0.4806,0.4852,0.4878,0.4913,0.4941,0.493,0.5003,0.4994,0.5017,0.5016,0.5032,0.503,0.5084,0.5048,0.5048,0.5048,0.5048,0,0.4478,0.4519,0.4561,0.4592,0.4638,0.4666,0.4711,0.4737,0.4774,0.481,0.4827,0.4861,0.4896,0.4935,0.4957,0.5006,0.5018,0.5032,0.5037,0.503,0.5028,0.5046,0.5043,0.505,0.5049,0.5049,0.5049,0,0.4506,0.4536,0.4591,0.464,0.4653,0.4685,0.4727,0.4757,0.4782,0.4828,0.484,0.4879,0.4925,0.4956,0.5016,0.5031,0.5084,0.5089,0.5069,0.5072,0.5093,0.509,0.516,0.517,0.5128,0.5128,0.5128,0,0.4534,0.4566,0.4618,0.4642,0.4667,0.4707,0.4735,0.4763,0.4792,0.4842,0.4866,0.4913,0.4952,0.5025,0.5059,0.5104,0.511,0.5131,0.5117,0.5108,0.5109,0.5107,0.5109,0.5133,0.5134,0.5134,0.5134,0,0.458,0.4593,0.4632,0.4676,0.4708,0.4745,0.4781,0.4801,0.4835,0.4866,0.4913,0.4943,0.5002,0.5049,0.5097,0.5123,0.5134,0.5138,0.5146,0.5139,0.5125,0.5132,0.5074,0.5137,0.5136,0.5136,0.5136,0.5136,0.4609,0.4637,0.4677,0.472,0.475,0.4784,0.4814,0.4842,0.4881,0.4931,0.4946,0.4994,0.5035,0.51,0.5127,0.5165,0.5163,0.5175,0.5178,0.518,0.5179,0.5119,0.5174,0.5174,0.5174,0.5174,0.5174,0,0.4655,0.4681,0.472,0.477,0.4803,0.481,0.485,0.4878,0.492,0.4956,0.4994,0.5047,0.5091,0.5128,0.5174,0.5198,0.5204,0.5209,0.5207,0.5213,0.5179,0.5167,0.5203,0.5203,0.5203,0.5203,0.5203,0.5203,0.4683,0.4731,0.4748,0.4812,0.4838,0.4884,0.4907,0.4937,0.4967,0.5025,0.5061,0.5085,0.5121,0.517,0.5211,0.5221,0.5237,0.524,0.5251,0.5218,0.5215,0.5212,0.5201,0.5243,0.5243,0.5282,0.5282,0.5282]},{"header":{"parameterUnit":"m.s-1","parameterCategory":1,"la1":30.2991,"la2":30.254,"lo1":-89.0895,"lo2":-89.0444,"dy":0.0017,"dx":0.0017,"nx":28,"ny":28,"refTime":"2025-08-14T03:00:00:Z","depth":0,"parameterNumber":3,"parameterNumberName":"V-component_of_WINDS"},"data":[0,0,0,0,0,0,0,0,0,0,0,0,0,0,0,0,0,0,0,0,0,0,0,0,0,0,0,0,0,0,0,0,0,0,0,0,0,0,0,0,0,0,0,0,0,0,0,0,0,0,0,0,0,0,0,0,0,0,3.3402,3.3401,0,3.3323,3.3322,3.3321,3.3284,3.3284,3.3284,3.3284,3.3196,3.3194,3.3192,0,0,0,0,0,0,0,0,0,0,0,0,0,3.3514,3.3512,3.3402,3.3401,3.34,3.3323,3.3322,3.3321,3.3284,3.3284,3.3284,3.3284,3.3197,3.3194,3.3191,0,0,0,0,0,0,0,0,0,0,0,0,0,3.3453,3.3511,3.3402,3.3373,3.3369,3.3323,3.3322,3.3321,3.3284,3.3284,3.3284,3.3284,3.3198,3.3195,3.3191,3.3167,0,0,3.318,3.3178,0,0,0,0,0,0,0,0,3.3456,3.3449,3.3378,3.3375,3.3371,3.3314,3.3329,3.3269,3.3284,3.3316,3.3284,3.3284,3.3235,3.3228,3.3213,3.3163,3.3159,3.318,3.3178,3.3176,3.3175,0,0,0,0,0,0,0,3.3461,3.3452,3.3371,3.3377,3.3372,3.3361,3.3352,3.3318,3.3276,3.3313,3.331,3.3302,3.3233,3.3217,3.3211,3.3158,3.318,3.3177,3.3174,3.3173,3.3082,3.3082,0,0,0,0,0,0,3.3471,3.3456,3.3373,3.3368,3.3415,3.3359,3.3349,3.3332,3.3276,3.3268,3.3302,3.33,3.3223,3.3215,3.3207,3.3174,3.3176,3.3173,3.3171,3.3082,3.3082,3.3081,0,0,0,0,0,0,3.3473,3.3464,3.3376,3.3411,3.3399,3.3357,3.3337,3.333,3.3314,3.3268,3.3259,3.3294,3.3222,3.3212,3.3177,3.3171,3.3171,3.3168,3.3082,3.3082,3.3082,3.3109,0,0,0,0,0,0,3.3477,3.3465,3.3457,3.3411,3.3398,3.335,3.3337,3.3328,3.3309,3.3306,3.3257,3.3249,3.3222,3.3183,3.3174,3.3166,3.3165,3.3083,3.3082,3.3082,3.3109,3.311,3.3111,0,0,0,0,0,3.3481,3.3467,3.3457,3.3447,3.3387,3.335,3.3342,3.3312,3.3308,3.3299,3.3269,3.3251,3.3173,3.318,3.3169,3.316,3.3083,3.3082,3.3082,3.3108,3.311,3.3111,0,0,0,0,0,0,3.3511,3.346,3.3449,3.342,3.339,3.3344,3.3331,3.3315,3.3283,3.3282,3.3244,3.3233,3.3201,3.3177,3.3185,3.3133,3.3126,3.3123,3.315,3.3151,3.3152,3.3158,3.3162,0,0,0,0,0,3.3515,3.3491,3.3447,3.3426,3.3411,3.3374,3.3356,3.3336,3.3302,3.3289,3.3256,3.3222,3.3189,3.3169,3.3137,3.3105,3.3093,3.3093,3.3095,3.3096,3.3093,3.3073,3.3073,3.3079,3.3079,3.3079,0,0,3.3521,3.3491,3.3477,3.3431,3.3405,3.3379,3.3363,3.3336,3.3315,3.3284,3.3249,3.3224,3.3183,3.3149,3.3133,3.3128,3.3089,3.3095,3.3096,3.3093,3.3072,3.3072,3.3071,3.3079,3.3079,3.3079,0,0,3.352,3.3495,3.3475,3.3449,3.3411,3.3386,3.3381,3.3337,3.332,3.3285,3.326,3.3233,3.3179,3.3151,3.3129,3.3116,3.3098,3.3106,3.3112,3.3092,3.3092,3.3091,3.3085,3.3084,3.3104,3.3104,3.3104,0,3.3532,3.3494,3.3465,3.344,3.3419,3.3391,3.3368,3.3344,3.3296,3.3282,3.3278,3.3208,3.3179,3.3138,3.3135,3.3118,3.3109,3.3112,3.3095,3.3094,3.3092,3.3086,3.3084,3.3106,3.3106,3.3105,3.3105,0,3.3511,3.3484,3.3472,3.3429,3.3406,3.3382,3.3347,3.3328,3.331,3.3284,3.3248,3.3211,3.3171,3.316,3.3141,3.3115,3.3113,3.3102,3.3095,3.3094,3.3087,3.3085,3.3108,3.3107,3.3107,3.3106,0,0,3.3526,3.3468,3.3463,3.3443,3.3398,3.3376,3.3349,3.3312,3.3295,3.3262,3.3238,3.3192,3.3182,3.3158,3.3135,3.3118,3.3108,3.3109,3.3107,3.3109,3.3076,3.3084,3.3082,3.3096,3.3096,3.3095,3.3079,0,3.3518,3.3472,3.3445,3.3409,3.3383,3.3356,3.3332,3.3301,3.3276,3.3249,3.322,3.3188,3.3178,3.3163,3.3145,3.3114,3.3101,3.3114,3.3071,3.3069,3.3081,3.3078,3.3087,3.3073,3.3076,3.3076,3.3075,0,3.3503,3.3473,3.3435,3.3393,3.338,3.336,3.3323,3.3298,3.3261,3.3243,3.3216,3.3194,3.3162,3.3157,3.3112,3.3122,3.3102,3.3083,3.3082,3.3076,3.3072,3.3071,3.3068,3.3066,3.3071,3.3072,3.3072,0,3.3517,3.3467,3.3438,3.3421,3.3371,3.3357,3.3335,3.3298,3.3277,3.3243,3.3228,3.3191,3.317,3.314,3.3107,3.3107,3.3064,3.3057,3.3047,3.3048,3.3039,3.3039,3.3032,3.3028,3.3028,3.3028,3.3028,0,3.351,3.3488,3.3443,3.3425,3.3398,3.3366,3.334,3.3315,3.3282,3.3257,3.323,3.3206,3.3164,3.3134,3.3108,3.3073,3.3064,3.3048,3.3041,3.305,3.3052,3.3036,3.3035,3.3027,3.3027,3.3027,3.3027,0,3.3521,3.3491,3.3457,3.3412,3.34,3.3383,3.3343,3.3323,3.3297,3.3265,3.3256,3.3214,3.3177,3.3142,3.3092,3.3074,3.3039,3.303,3.3053,3.3048,3.304,3.3041,3.3021,3.3016,3.3016,3.3016,3.3016,0,3.3519,3.3501,3.3455,3.3437,3.3416,3.3388,3.3366,3.3333,3.3311,3.3267,3.3252,3.3214,3.3182,3.3124,3.3088,3.3049,3.3038,3.3034,3.3032,3.3041,3.3037,3.3038,3.3035,3.3035,3.3035,3.3035,3.3035,0,3.3517,3.3503,3.3474,3.344,3.3416,3.3387,3.3356,3.3342,3.3303,3.3279,3.3243,3.3218,3.3168,3.313,3.3087,3.3061,3.304,3.3036,3.3031,3.304,3.3053,3.3045,3.3054,3.3037,3.3036,3.3036,3.3036,3.3036,3.352,3.3503,3.3468,3.3437,3.3411,3.3383,3.3362,3.3333,3.3303,3.3262,3.3243,3.3206,3.3166,3.3107,3.3082,3.305,3.3045,3.3039,3.3037,3.3036,3.3037,3.3059,3.3042,3.3042,3.3042,3.3042,3.3042,0,3.3517,3.3493,3.3464,3.3424,3.3398,3.3384,3.3349,3.3328,3.3296,3.3263,3.3232,3.3189,3.3152,3.3113,3.3072,3.3054,3.3044,3.3045,3.3045,3.3039,3.3045,3.3052,3.3054,3.3054,3.3054,3.3054,3.3054,3.3054,3.3512,3.3481,3.3463,3.3418,3.3394,3.3359,3.334,3.3313,3.3286,3.324,3.321,3.3185,3.3149,3.3105,3.3069,3.3058,3.3044,3.3047,3.3034,3.304,3.3039,3.3038,3.3045,3.3045,3.3045,3.303,3.303,3.303]}]]